Simultaneous Nadir Overpasses (SNOs) Predictions

Prediction of SNOs between METOP-B and NOAA-19 Satellite Orbit:

Table of predicted SNOs for the next 14.0 days since TLE Epoch: 11/28/2020
Index Date (METOP-B) Time (METOP-B) Lat,Lon (METOP-B) SZA (METOP-B ) Date (NOAA-19) Time (NOAA-19) Lat,Lon (NOAA-19) SZA (NOAA-19 ) Distance(km) Time Diff (sec)
1 12/04/2020 14:57:40 80.30, -18.79 103.67 12/04/2020 14:56:30 80.28, -18.72 103.64 2.33 70
2 12/04/2020 15:48:21 -80.30, 148.49 76.33 12/04/2020 15:47:35 -80.29, 148.32 76.36 3.15 46
3 12/04/2020 16:39:02 80.29, -44.25 103.66 12/04/2020 16:38:31 80.29, -44.39 103.65 2.57 31
4 12/04/2020 17:29:43 -80.28, 123.02 76.35 12/04/2020 17:29:35 -80.29, 122.97 76.35 0.86 8
5 12/04/2020 18:20:24 80.28, -69.72 103.65 12/04/2020 18:20:31 80.28, -69.73 103.66 0.56 7
6 12/04/2020 19:11:05 -80.27, 97.55 76.36 12/04/2020 19:11:35 -80.28, 97.63 76.34 1.46 30
7 12/04/2020 20:01:46 80.27, -95.19 103.64 12/04/2020 20:02:31 80.27, -95.07 103.67 2.30 45
